Weather History for KALM - October, 2013

Change the Weather History Date:

Monday, October 7, 2013

  Actual Average Record
Temperature  
Mean Temperature 57 °F -  
Max Temperature 75 °F 81 °F 93 °F (1979)
Min Temperature 39 °F 51 °F 35 °F (1953)
Degree Days  
Heating Degree Days 8    
Growing Degree Days 7 (Base 50)    
Moisture  
Dew Point 25 °F    
Average Humidity 31    
Maximum Humidity 56    
Minimum Humidity 13    
Precipitation  
Precipitation 0.00 in - - ()
Sea Level Pressure  
Sea Level Pressure 30.23 in    
Wind  
Wind Speed 3 mph (South)    
Max Wind Speed 10 mph    
Max Gust Speed -    
Visibility 10 miles    
Events      
Averages and records for this station are not official NWS values.
T = Trace of Precipitation, MM = Missing Value Source: NWS Daily Summary

Daily Weather History Graph

Daily Weather History Graph

Search for Another Location

Airport or City:

Trip Planner

Search our weather history database for the weather conditions in past years. The results will help you decide how hot, cold, wet, or windy it might be!

Date:

Astronomy

Oct. 07, 2013 Rise Set
Actual Time 7:02 AM MDT 6:40 PM MDT
Civil Twilight 6:37 AM MDT 7:05 PM MDT
Nautical Twilight 6:09 AM MDT 7:33 PM MDT
Astronomical Twilight 5:40 AM MDT 8:02 PM MDT
Moon 9:45 AM MDT (10/7) 8:38 PM MDT (10/7)
Length of Visible Light 12h 27m
Length of Day
11h 37m
Waxing Crescent, 9% of the Moon is Illuminated
Oct 7
Waxing Crescent
Oct 11
First Quarter
Oct 18
Full
Oct 26
Last Quarter
Nov 3
New

Hourly Weather History & Observations

Time (MDT) Temp. Windchill Dew Point Humidity Pressure Visibility Wind Dir Wind Speed Gust Speed Precip Events Conditions
12:15 AM 51.8 °F - 24.8 °F 35% 30.26 in 10.0 mi Calm Calm - N/A   Clear
12:35 AM 50.0 °F - 26.6 °F 40% 30.26 in 10.0 mi Calm Calm - N/A   Clear
12:55 AM 48.2 °F - 26.6 °F 43% 30.26 in 10.0 mi Calm Calm - N/A   Clear
1:15 AM 46.4 °F - 26.6 °F 46% 30.26 in 10.0 mi Calm Calm - N/A   Clear
1:35 AM 51.8 °F - 24.8 °F 35% 30.26 in 10.0 mi Calm Calm - N/A   Clear
1:55 AM 48.2 °F - 24.8 °F 40% 30.26 in 10.0 mi NE 3.5 mph - N/A   Clear
2:15 AM 44.6 °F 43.1 °F 24.8 °F 46% 30.26 in 10.0 mi North 3.5 mph - N/A   Clear
2:35 AM 46.4 °F 45.2 °F 24.8 °F 43% 30.26 in 10.0 mi WNW 3.5 mph - N/A   Clear
2:55 AM 48.2 °F - 24.8 °F 40% 30.26 in 10.0 mi WNW 6.9 mph - N/A   Clear
3:15 AM 50.0 °F - 24.8 °F 37% 30.26 in 10.0 mi SW 3.5 mph - N/A   Clear
3:35 AM 46.4 °F 45.2 °F 24.8 °F 43% 30.26 in 10.0 mi ESE 3.5 mph - N/A   Clear
3:55 AM 44.6 °F 43.1 °F 24.8 °F 46% 30.26 in 10.0 mi East 3.5 mph - N/A   Clear
4:15 AM 41.0 °F - 24.8 °F 53% 30.26 in 10.0 mi Calm Calm - N/A   Clear
4:35 AM 41.0 °F - 24.8 °F 53% 30.26 in 10.0 mi Calm Calm - N/A   Clear
4:55 AM 41.0 °F - 24.8 °F 53% 30.27 in 10.0 mi Calm Calm - N/A   Clear
5:15 AM 42.8 °F 41.1 °F 24.8 °F 49% 30.27 in 10.0 mi ENE 3.5 mph - N/A   Clear
5:35 AM 41.0 °F - 24.8 °F 53% 30.27 in 10.0 mi Calm Calm - N/A   Clear
5:55 AM 39.2 °F - 24.8 °F 56% 30.28 in 10.0 mi Calm Calm - N/A   Clear
6:15 AM 41.0 °F 39.0 °F 24.8 °F 53% 30.28 in 10.0 mi SE 3.5 mph - N/A   Clear
6:35 AM 39.2 °F 35.9 °F 24.8 °F 56% 30.29 in 10.0 mi ESE 4.6 mph - N/A   Clear
6:55 AM 41.0 °F 39.0 °F 24.8 °F 53% 30.29 in 10.0 mi SE 3.5 mph - N/A   Clear
7:15 AM 41.0 °F - 24.8 °F 53% 30.29 in 10.0 mi Calm Calm - N/A   Clear
7:35 AM 41.0 °F - 24.8 °F 53% 30.29 in 10.0 mi Calm Calm - N/A   Clear
7:55 AM 46.4 °F - 26.6 °F 46% 30.30 in 10.0 mi Calm Calm - N/A   Clear
8:15 AM 50.0 °F - 26.6 °F 40% 30.31 in 10.0 mi Calm Calm - N/A   Clear
8:35 AM 53.6 °F - 26.6 °F 35% 30.32 in 10.0 mi Calm Calm - N/A   Clear
8:55 AM 53.6 °F - 28.4 °F 38% 30.32 in 10.0 mi Calm Calm - N/A   Clear
9:15 AM 55.4 °F - 28.4 °F 36% 30.33 in 10.0 mi SSW 3.5 mph - N/A   Clear
9:35 AM 57.2 °F - 28.4 °F 33% 30.33 in 10.0 mi Calm Calm - N/A   Clear
9:55 AM 59.0 °F - 26.6 °F 29% 30.33 in 10.0 mi WSW 3.5 mph - N/A   Clear
10:15 AM 60.8 °F - 26.6 °F 27% 30.33 in 10.0 mi West 3.5 mph - N/A   Clear
10:35 AM 62.6 °F - 26.6 °F 26% 30.32 in 10.0 mi Calm Calm - N/A   Clear
10:55 AM 64.4 °F - 26.6 °F 24% 30.31 in 10.0 mi Calm Calm - N/A   Clear
11:15 AM 66.2 °F - 26.6 °F 23% 30.31 in 10.0 mi SSE 3.5 mph - N/A   Clear
11:35 AM 68.0 °F - 26.6 °F 21% 30.30 in 10.0 mi Calm Calm - N/A   Clear
11:55 AM 68.0 °F - 26.6 °F 21% 30.30 in 10.0 mi SSW 5.8 mph - N/A   Clear
12:15 PM 71.6 °F - 28.4 °F 20% 30.29 in 10.0 mi SSW 5.8 mph - N/A   Clear
12:35 PM 71.6 °F - 24.8 °F 17% 30.28 in 10.0 mi South 8.1 mph - N/A   Clear
12:55 PM 73.4 °F - 24.8 °F 16% 30.26 in 10.0 mi SSW 6.9 mph - N/A   Clear
1:15 PM 73.4 °F - 23.0 °F 15% 30.25 in 10.0 mi SW 9.2 mph - N/A   Clear
1:35 PM 73.4 °F - 23.0 °F 15% 30.24 in 10.0 mi SW 5.8 mph - N/A   Clear
1:55 PM 73.4 °F - 24.8 °F 16% 30.23 in 10.0 mi SSW 10.4 mph - N/A   Clear
2:15 PM 75.2 °F - 24.8 °F 15% 30.22 in 10.0 mi SW 4.6 mph - N/A   Clear
2:35 PM 73.4 °F - 23.0 °F 15% 30.20 in 10.0 mi SSW 10.4 mph - N/A   Clear
2:55 PM 75.2 °F - 23.0 °F 14% 30.20 in 10.0 mi South 9.2 mph - N/A   Clear
3:15 PM 75.2 °F - 23.0 °F 14% 30.19 in 10.0 mi SW 6.9 mph - N/A   Clear
3:35 PM 75.2 °F - 23.0 °F 14% 30.18 in 10.0 mi WSW 8.1 mph - N/A   Clear
3:55 PM 75.2 °F - 23.0 °F 14% 30.17 in 10.0 mi South 3.5 mph - N/A   Clear
4:15 PM 75.2 °F - 21.2 °F 13% 30.17 in 10.0 mi SW 8.1 mph - N/A   Clear
4:35 PM 75.2 °F - 23.0 °F 14% 30.16 in 10.0 mi WSW 8.1 mph - N/A   Clear
4:55 PM 75.2 °F - 23.0 °F 14% 30.16 in 10.0 mi WSW 8.1 mph - N/A   Clear
5:15 PM 75.2 °F - 24.8 °F 15% 30.15 in 10.0 mi SSW 6.9 mph - N/A   Clear
5:35 PM 75.2 °F - 23.0 °F 14% 30.15 in 10.0 mi SW 6.9 mph - N/A   Clear
5:55 PM 73.4 °F - 23.0 °F 15% 30.15 in 10.0 mi SW 5.8 mph - N/A   Clear
6:15 PM 71.6 °F - 24.8 °F 17% 30.15 in 10.0 mi WSW 4.6 mph - N/A   Clear
6:35 PM 71.6 °F - 24.8 °F 17% 30.16 in 10.0 mi West 4.6 mph - N/A   Clear
6:55 PM 69.8 °F - 24.8 °F 18% 30.16 in 10.0 mi Calm Calm - N/A   Clear
7:15 PM 64.4 °F - 24.8 °F 22% 30.16 in 10.0 mi Calm Calm - N/A   Clear
7:35 PM 59.0 °F - 26.6 °F 29% 30.16 in 10.0 mi East 8.1 mph - N/A   Clear
7:55 PM 59.0 °F - 26.6 °F 29% 30.16 in 10.0 mi ENE 9.2 mph - N/A   Clear
8:15 PM 59.0 °F - 26.6 °F 29% 30.16 in 10.0 mi ENE 9.2 mph - N/A   Clear
8:35 PM 59.0 °F - 24.8 °F 27% 30.17 in 10.0 mi ENE 8.1 mph - N/A   Clear
8:55 PM 57.2 °F - 24.8 °F 29% 30.16 in 10.0 mi East 9.2 mph - N/A   Clear
9:15 PM 59.0 °F - 24.8 °F 27% 30.17 in 10.0 mi ENE 8.1 mph - N/A   Clear
9:35 PM 57.2 °F - 24.8 °F 29% 30.17 in 10.0 mi ENE 8.1 mph - N/A   Clear
9:55 PM 57.2 °F - 24.8 °F 29% 30.16 in 10.0 mi ENE 8.1 mph - N/A   Clear
10:15 PM 57.2 °F - 24.8 °F 29% 30.16 in 10.0 mi ENE 8.1 mph - N/A   Clear
10:35 PM 57.2 °F - 24.8 °F 29% 30.16 in 10.0 mi ENE 6.9 mph - N/A   Clear
10:55 PM 55.4 °F - 24.8 °F 31% 30.16 in 10.0 mi ENE 4.6 mph - N/A   Clear
11:15 PM 53.6 °F - 24.8 °F 33% 30.15 in 10.0 mi Calm Calm - N/A   Clear
11:35 PM 53.6 °F - 24.8 °F 33% 30.15 in 10.0 mi ENE 4.6 mph - N/A   Clear
11:55 PM 53.6 °F - 24.8 °F 33% 30.14 in 10.0 mi ENE 6.9 mph - N/A   Clear